THOR ABLESTAR R/B, 59

Orbit data source: Space-Track

THOR ABLESTAR R/B, 59 is space debris in LEO originally from a launch on Tue, 04 Oct 1960 UTC launched from the Air Force Eastern Test Range (AFETR). Debris objects in space refer to the collection of defunct objects orbiting the Earth. Examples of debris include non-operational satellites, rocket bodies, and fragments generated from explosions, collisions, or faulty payload assembly.

Loading next visibility...
Identifier
59, 1960-013B
Orbit
LEO
Country
Flag of USUS
Related business
Manufacturer
Aerojet
Mission
Spacecraft
Bus & Motor
ABLESTAR, Unknown motor
Mass
600 kg wet, 600 kg dry
Launch date (UTC)
1960-10-04 (65 years ago)
Launch vehicle
Unknown
Launch site
Air Force Eastern Test Range (AFETR)
Object type
Payload
Rocket body
Debris
Shape & HBR
Unknown
Radar Cross Section
Large (>1 m²)

Expand to show TLE details & history
Last TLE update: 19 hours ago

TLE from 19 hours ago
0 THOR ABLESTAR R/B
1    59U 60013B   26037.26770706  .00000155  00000-0  86699-4 0  9990
2    59  28.2499  76.2391 0188858 296.7295  61.4037 13.53160728225428
Epoch: 2026-02-06T06:25Z
TLE epoch observation values (Epoch: 2026-02-06T06:25:29.889Z)
Latitude
-0.00001°
Longitude
-156.54348°
Altitude
993.871 km
Speed
7.389 km/s
True Right ascension
05h 04m 57s
True Declination
0° 00' 00"
Sunlit
Object was in daylight at epoch
Visualization orbit readout
Latitude
Unknown
Longitude
Unknown
Altitude
Unknown
Speed
Unknown
Apparent Right ascension
Unknown
Apparent Declination
Unknown
Sunlit
N/A
Visualization observer readout
Local Sidereal Time
04:02:23
Azimuth
Unknown
Elevation
Unknown
Doppler factor
Unknown
Orbital elements
Apogee altitude
1,205.153 km
Perigee altitude
924.029 km
Semi-major axis
7,442.728 km
Eccentricity
0.01889
Inclination
28.2499°
RAAN
76.2391°
Arg. of periapsis
296.7295°
True anomaly
63.3252°
Mean anomaly
61.4037°
Eccentric anomaly
62.36231°
Mean motion
3.38022 °/min
Orbital period
106.5 mins
BSTAR
0.000086699
Loading maneuver chart data...
Computing Atmospheric mass density...
Loading historical data...
Loading historical data...
Loading historical data...
Loading historical data...
Loading historical data...
Loading historical data...
Loading historical data...
Other satellites on launch #13 in the year 1960 (1960-10-04 UTC)

Documentation

Showing up to 5 results
|